Regional Weather Roundup
Issued by NWS Upton, NY

Current Version | Previous Version | Graphics & Text | Print | Product List | Glossary Off
Versions: 1 2 3 4 5 6 7 8 9 10 11 12 13 14 15 16 17 18 19 20 21 22 23 24 25 26 27

000
ASUS41 KOKX 250109
RWROKX

REGIONAL WEATHER ROUNDUP
NATIONAL WEATHER SERVICE NEW YORK NY
900 PM EDT SAT JUN 24 2017

NOTE: "FAIR" INDICATES FEW OR NO CLOUDS BELOW 12,000 FEET WITH NO
SIGNIFICANT WEATHER AND/OR OBSTRUCTIONS TO VISIBILITY.

NYZ071-072-176-178-NJZ106-104-250200-
NEW YORK CITY METRO AREA

CITY           SKY/WX    TMP DP  RH WIND       PRES   REMARKS
Central Park   PTCLDY    81  56  42 VRB5      29.86R
Bronx Bot Gard   N/A     81  55  41 W10       29.86R
LaGuardia APRT PTCLDY    84  57  39 SW12      29.82S
Kennedy INTL   MOCLDY    78  64  61 SW15      29.84R
Breezy Point     N/A     73 N/A N/A SW8         N/A
Newark/Liberty MOCLDY    81  58  45 SW14G21   29.83R
Teterboro      CLOUDY    81  58  45 SW12      29.82R
$$

NYZ177-179-078>081-250200-
LONG ISLAND NEW YORK

CITY           SKY/WX    TMP DP  RH WIND       PRES   REMARKS
Jones Beach      N/A     70 N/A N/A SW6         N/A
Matinecock PT  NOT AVBL
Farmingdale    NOT AVBL
MacArthur/ISP  PTCLDY    77  57  50 SW6       29.84R
Shirley        PTCLDY    71  60  68 CALM      29.84R
Mt Sinai Harb    N/A    N/A N/A N/A SW3         N/A
Westhampton    PTCLDY    69  57  65 CALM      29.85R
East Hampton   FAIR      73  57  57 W3        29.83R
Montauk          N/A     75  61  61 SW6       29.84R
$$

NYZ052-065-067-250200-
HUDSON VALLEY

CITY           SKY/WX    TMP DP  RH WIND       PRES   REMARKS
White Plains   CLEAR     72  57  60 CALM      29.84R
Larchmont Harb   N/A     79 N/A N/A SW8         N/A
Croton O-T Hud   N/A     79 N/A N/A S2          N/A
Newburgh       PTCLDY    77  59  53 VRB5      29.83R
Montgomery     CLEAR     71  61  70 S3        29.82R
Poughkeepsie   CLEAR     72  59  63 CALM      29.80R
Albany         CLOUDY    69  59  70 W9        29.83R
$$

NJZ001-105-106-008-010-013-015-019>022-104-250200-
NEW JERSEY

CITY           SKY/WX    TMP DP  RH WIND       PRES   REMARKS
Newark/Liberty MOCLDY    81  58  45 SW14G21   29.83R
Teterboro      CLOUDY    81  58  45 SW12      29.82R
Caldwell       CLEAR     80  58  46 SW3       29.84R
Somerville     PTCLDY    75  62  64 S3        29.83R
Linden         FAIR      81  57  44 W6        29.85R
Perth Amboy      N/A     81 N/A N/A W12         N/A
Sussex         CLEAR     71  63  75 S3        29.84R
Andover          N/A     71  61  70 CALM      29.86R
Trenton        PTCLDY    78  60  53 SW5       29.86R
Millville      CLEAR     71  68  90 CALM      29.90R
Atlantic City  CLEAR     77  63  61 SW6       29.89R
Wrightstown    CLEAR     73  63  70 SW7       29.85R
Toms River     CLEAR     73  63  70 SW6       29.88R
Belmar         PTCLDY    77  61  57 SW7       29.88R
$$

PAZ047>061-062-071-250200-
EASTERN PENNSYLVANIA

CITY           SKY/WX    TMP DP  RH WIND       PRES   REMARKS
Philadelphia   PTCLDY    81  60  48 SW9       29.88R
Allentown      CLEAR     74  58  57 W8        29.86R
Scranton       CLOUDY    76  57  51 NW14G25   29.89R
$$

CTZ002-004>006-009-010-012-RIZ004-006-007-MAZ004-011-015-250200-
SOUTHERN NEW ENGLAND
 IN CT

CITY           SKY/WX    TMP DP  RH WIND       PRES   REMARKS
Bradley INTL   PTCLDY    73  58  59 W3        29.80R
Hartford       CLEAR     74  57  55 CALM      29.80R
Danbury        CLEAR     70  60  70 SW3       29.84R
Wtrbury/Oxford CLEAR     73  52  46 CALM      29.85S
Bridgeport     CLEAR     75  60  59 SW7       29.82R
Meriden        CLEAR     69  62  78 CALM      29.81R
New Haven      PTCLDY    73  59  60 S5        29.82R
Chester        FAIR      73  57  56 CALM      29.83R
Groton         CLEAR     69  61  75 S3        29.81R
Wilimantic     CLEAR     72  60  66 CALM      29.81R

 IN RI

CITY           SKY/WX    TMP DP  RH WIND       PRES   REMARKS
Providence     PTCLDY    75  56  51 W6        29.80R
Block Island   CLEAR     70  60  70 W6        29.83R
Westerly       CLEAR     75  61  61 CALM      29.82R
 IN MA

CITY           SKY/WX    TMP DP  RH WIND       PRES   REMARKS
Boston         PTCLDY    79  56  45 W14G24    29.76R
Worcester      CLEAR     70  49  47 W6        29.83R
Westfield      CLEAR     69  60  73 CALM      29.80R
Provincetown   CLEAR     72  61  68 W10       29.77R
Nantucket      PTCLDY    67  61  81 W13       29.79R
$$

ANZ330-335-338-340-345-350-353-355-250200-
COASTAL MARINE OBSERVATIONS


STATION/POSITION TIME  SKY/WX   TEMP    WIND        PRES    VSBY  WAVE
                                AIR SEA DIR/SP/G                  HT/PER
                 (UTC)          (F)     (DEG/KT/KT) (MB)    (MI)  (FT/S)
NY HARB ENTRANCE 2350            74 67  260/  8/ 10 1010.1          5/ 9
20 S FIRE ISLAND 0050            73 69  240/  8/ 10 1010.2          6/ 8
GREAT SOUTH BAY  0015            76 76  240/ 10/ 12   N/A
23 SSW MONTAUK P 2350            69 64              1009.6          7/ 9
15 E BARNEGAT LI 0030               65                N/A           5/ 8
HUDSON CANYON    2350            70 66  230/ 10/ 12 1010.7          7/ 9
KINGS POINT      0030            80 67  290/  7/  9 1009.9
EXECUTION ROCKS  0045            74     230/  6/ 10   N/A
CENTRAL LI SOUND 0045            74     250/  8/ 10   N/A           1
EASTERN LI SOUND NOT AVBL
ROBBINS REEF     0024                   240/ 14/ 17 1010.7
$$


>>>>>>>>>>>>>>>>>>>>>>>>>>>> KEY <<<<<<<<<<<<<<<<<<<<<<<<<<<
>                                                          <
>     SKY/WX - Sky Condition/Present Weather               <
>     TMP    - Temperature in Fahrenheit                   <
>     DP     - Dew Point in Fahrenheit                     <
>     RH     - Relative Humidity in Percent                <
>     WIND   - Direction (from) and Speed in MPH           <
>     PRES   - Mean Sea Level Pressure (inches of Hg)      <
>     WCI    - Wind Chill Index                            <
>     VSB    - VISIBILITY IN MILES                         <
>     HX     - HEAT INDEX                                  <
>     TC     - TEMPERATURE IN CELSIUS                      <
>     VRB    - VARIABLE WIND DIRECTION                     <
>                                                          <
>>>>>>>>>>>>>>>>>>>>>>>>>>>> KEY <<<<<<<<<<<<<<<<<<<<<<<<<<<




USA.gov is the U.S. government's official web portal to all federal, state and local government web resources and services.